SWARM C

Last updated on Mon Sep 21 2026 00:03:33 GMT+0000 (Coordinated Universal Time)

1 39453U 13067C 26263.59857496 .00008443 00000+0 14552-3 0 9991 2 39453 87.3359 19.3765 0002541 101.5207 258.6339 15.50861207720998
UTC large
Height (km)
Speed (km/s)
/
Latitude / Longitude
Inclination (degrees)
Orbital Period (minutes)
Azimuth
Elevation
Range (km)
Doppler Factor

Next 0 passes for location: London (51.5072 / 0.1276)

No passes found over London.
SWARM C